Regional Weather Roundup
Issued by NWS

Home | Current Version | Previous Version | Graphics & Text | Print | Product List | Glossary On
Versions: 1 2 3 4 5 6 7 8 9 10 11 12 13 14 15 16 17 18 19 20 21 22 23 24 25 26 27 28 29 30 31 32 33 34 35 36 37 38 39 40 41 42 43 44 45 46 47 48 49 50
000
ASUS45 KPSR 290200
RWRAZ

PRELIMINARY ARIZONA REGIONAL HOURLY WEATHER ROUNDUP
NATIONAL WEATHER SERVICE PHOENIX AZ
700 PM MST WED JAN 28 2015

NOTE: FAIR INDICATES FEW OR NO CLOUDS BELOW 12,000 FEET WITH NO
SIGNIFICANT WEATHER AND/OR OBSTRUCTIONS TO VISIBILITY.

AZZ001>003-036-290300-
NORTHWEST ARIZONA

CITY           SKY/WX    TMP DP  RH WIND       PRES   REMARKS
KINGMAN        CLOUDY    52  45  77 NE6       30.20R
$$

AZZ004>008-015-016-018-290300-
NORTH CENTRAL ARIZONA

CITY           SKY/WX    TMP DP  RH WIND       PRES   REMARKS
GRAND CANYON   CLOUDY    39  31  72 NE3       30.27R
PRESCOTT       CLOUDY    50  30  46 CALM      30.21R
FLAGSTAFF      NOT AVBL
PAYSON         CLOUDY    54  32  43 CALM      30.22F
$$

AZZ009>014-017-290300-
NORTHEAST ARIZONA

CITY           SKY/WX    TMP DP  RH WIND       PRES   REMARKS
WINSLOW        NOT AVBL
SAINT JOHNS    MOCLDY    47  28  47 NW5       30.21R
WINDOW ROCK    MOCLDY    44  30  57 CALM      30.27R
SHOW LOW       CLOUDY    46  28  49 CALM      30.27R
$$

AZZ023-290300-
GREATER PHOENIX AREA

CITY           SKY/WX    TMP DP  RH WIND       PRES   REMARKS
PHOENIX        CLOUDY    69  52  54 W7        30.05R
GLENDALE       MOCLDY    66  54  63 S5        30.07R
LUKE AFB       NOT AVBL
DEER VALLEY    CLOUDY    67  44  43 CALM      30.06S
SCOTTSDALE     CLOUDY    68  45  43 CALM      30.07F
MESA-FALCON    CLOUDY    66  48  52 SW6       30.06S
MESA-GATEWAY   MOCLDY    64  52  63 NW3       30.09R
CHANDLER       MOCLDY    68  50  52 VRB5      30.06R
$$

AZZ027-028-290300-
SOUTHWEST MARICOPA COUNTY AND PINAL COUNTY

CITY           SKY/WX    TMP DP  RH WIND       PRES   REMARKS
CASA GRANDE    CLOUDY    64  48  55 CALM      30.08R
GILA BEND      MOCLDY    65  56  73 SW1       30.07R
$$

AZZ503-504-507>509-290300-
SOUTHEAST ARIZONA

CITY           SKY/WX    TMP DP  RH WIND       PRES   REMARKS
TUCSON         MOCLDY    66  50  56 N10       30.10R
DAVIS-MONTHAN  CLOUDY    63  51  63 NW12      30.08R
RYAN FIELD       N/A     64  52  63 NW9       30.10R
NOGALES        MOCLDY    59  37  44 E5        30.12R
SIERRA VISTA   MOCLDY    57  39  51 W10       30.16R
SAFFORD        MOCLDY    62  35  36 N3        30.09R
$$

AZZ020-021-025-026-031-290300-
SOUTHWEST ARIZONA

CITY           SKY/WX    TMP DP  RH WIND       PRES   REMARKS
YUMA           CLOUDY    68  51  54 N6        30.08S
$$

CAZ031-033-041-043-047-048-061-290300-
SOUTHERN CALIFORNIA

CITY           SKY/WX    TMP DP  RH WIND       PRES   REMARKS
DOWNTOWN L.A.  CLOUDY    67  50  54 CALM      30.06R
L.A. AIRPORT   CLOUDY    64  52  64 CALM      30.07S
SAN DIEGO      CLOUDY    68  45  43 W3        30.08S
BURBANK        CLOUDY    68  44  42 N5        30.07S
ONTARIO        CLOUDY    68  43  40 E5        30.09R
RIVERSIDE      CLOUDY    67  45  45 NE6       30.10R
PALM SPRINGS   CLOUDY    70  45  40 VRB5      30.12S
EL CENTRO NAS  CLOUDY    65  52  62 W8        30.09R
IMPERIAL       CLOUDY    65  52  62 W3        30.08R
BLYTHE         CLOUDY    67  51  56 N9        30.09S
$$

NVZ020-UTZ003-290300-
SOUTHERN NEVADA-UTAH

CITY           SKY/WX    TMP DP  RH WIND       PRES   REMARKS
LAS VEGAS      NOT AVBL
SALT LAKE CITY MOCLDY    41  36  82 N7        30.32R
$$

NMZ009-TXZ055-290300-
NEW MEXICO-WEST TEXAS

CITY           SKY/WX    TMP DP  RH WIND       PRES   REMARKS
ALBUQUERQUE    MOCLDY    53  30  41 NW9       30.22R
EL PASO        PTCLDY    64  37  36 SW5       30.14R
$$


........................KEY........................
SKY/WX - SKY CONDITION/WEATHER
TMP    - TEMPERATURE IN FAHRENHEIT
DP     - DEW POINT IN FAHRENHEIT
RH     - RELATIVE HUMIDITY IN PERCENT
WIND   - DIRECTION AND SPEED IN MILES PER HOUR (MPH)
VRB    - VARIABLE WIND DIRECTION
PRES   - MEAN SEA LEVEL PRESSURE IN INCHES OF MERCURY
         F - FALLING PRESSURE   R - RISING PRESSURE
         S - STEADY PRESSURE
VSB    - VISIBILITY IN MILES
HX     - HEAT INDEX IN FAHRENHEIT
WCI    - WIND CHILL INDEX IN FAHRENHEIT
TC     - TEMPERATURE IN CELSIUS WHICH IS ALSO KNOWN AS
         TEMPERATURE IN CENTIGRADE
AFB    - AIR FORCE BASE
         LUKE AFB IS LUKE AIR FORCE BASE
         DAVIS-MONTHAN IS DAVIS-MONTHAN AIR FORCE BASE
NAS    - NAVAL AIR STATION
         EL CENTRO NAS IS EL CENTRO NAVAL AIR STATION
N/A    - NOT AVAILABLE


USA.gov is the U.S. government's official web portal to all federal, state and local government web resources and services.